Weather History for Chignik, AK

Change the Weather History Date:

Sunday, November 27, 2011

  Actual Average Record
Temperature  
Mean Temperature 30 °F -  
Max Temperature 32 °F 35 °F 50 °F (2004)
Min Temperature 28 °F 29 °F 17 °F (2008)
Degree Days  
Heating Degree Days 35    
Moisture  
Dew Point 20 °F    
Average Humidity 69    
Maximum Humidity 80    
Minimum Humidity 60    
Precipitation  
Precipitation 0.00 in - - ()
Sea Level Pressure  
Sea Level Pressure 29.24 in    
Wind  
Wind Speed 14 mph (SSW)    
Max Wind Speed 23 mph    
Max Gust Speed 30 mph    
Visibility 10 miles    
Events      
Averages and records for this station are not official NWS values.
T = Trace of Precipitation, MM = Missing Value Source: NWS Daily Summary

Daily Weather History Graph

Daily Weather History Graph

Search for Another Location

Airport:

Trip Planner

Search our weather history database for the weather conditions in past years. The results will help you decide how hot, cold, wet, or windy it might be!

Date:

Astronomy

Nov. 27, 2011 Rise Set
Actual Time 9:35 AM AKST 5:06 PM AKST
Civil Twilight 8:50 AM AKST 5:51 PM AKST
Nautical Twilight 8:02 AM AKST 6:39 PM AKST
Astronomical Twilight 7:17 AM AKST 7:24 PM AKST
Moon 12:13 PM AKST (11/27) 7:57 PM AKST (11/27)
Length of Visible Light 9h 01m
Length of Day
7h 31m
Waxing Crescent, 9% of the Moon is Illuminated
Nov 27
Waxing Crescent
Dec 2
First Quarter
Dec 10
Full
Dec 17
Last Quarter
Dec 24
New

Hourly Weather History & Observations

Time (AKST) Temp. Windchill Dew Point Humidity Pressure Visibility Wind Dir Wind Speed Gust Speed Precip Events Conditions
8:56 AM 32.0 °F 22.1 °F 26.6 °F 80% 29.06 in 10.0 mi SSW 13.8 mph - N/A   Overcast
9:16 AM 30.2 °F 19.8 °F 24.8 °F 80% 29.07 in 10.0 mi SSW 13.8 mph - N/A   Mostly Cloudy
9:36 AM 30.2 °F 18.9 °F 24.8 °F 80% 29.08 in 10.0 mi SSW 16.1 mph - N/A   Mostly Cloudy
9:56 AM 30.2 °F 17.8 °F 23.0 °F 75% 29.08 in 10.0 mi SSW 19.6 mph 25.3 mph N/A   Mostly Cloudy
10:16 AM 30.2 °F 16.8 °F 23.0 °F 75% 29.10 in 10.0 mi SSW 23.0 mph 27.6 mph N/A   Scattered Clouds
10:36 AM 30.2 °F 18.5 °F 23.0 °F 75% 29.11 in 10.0 mi South 17.3 mph 24.2 mph N/A   Clear
10:56 AM 30.2 °F 18.9 °F 21.2 °F 69% 29.12 in 10.0 mi SSW 16.1 mph 23.0 mph N/A   Mostly Cloudy
11:16 AM 30.2 °F 18.1 °F 21.2 °F 69% 29.13 in 10.0 mi SSW 18.4 mph 24.2 mph N/A   Mostly Cloudy
11:36 AM 30.2 °F 18.5 °F 23.0 °F 75% 29.14 in 10.0 mi South 17.3 mph 27.6 mph N/A   Overcast
11:56 AM 30.2 °F 18.9 °F 21.2 °F 69% 29.16 in 10.0 mi SSW 16.1 mph 24.2 mph N/A   Scattered Clouds
12:16 PM 30.2 °F 18.5 °F 21.2 °F 69% 29.17 in 10.0 mi SSW 17.3 mph 21.9 mph N/A   Scattered Clouds
12:36 PM 30.2 °F 18.9 °F 21.2 °F 69% 29.18 in 10.0 mi SW 16.1 mph 21.9 mph N/A   Mostly Cloudy
12:56 PM 30.2 °F 19.3 °F 21.2 °F 69% 29.18 in 10.0 mi WSW 15.0 mph 20.7 mph N/A   Partly Cloudy
1:16 PM 28.4 °F 18.0 °F 19.4 °F 69% 29.19 in 10.0 mi WSW 12.7 mph 20.7 mph N/A   Clear
1:36 PM 28.4 °F 18.5 °F 19.4 °F 69% 29.20 in 10.0 mi SW 11.5 mph 16.1 mph N/A   Partly Cloudy
1:56 PM 30.2 °F 20.2 °F 21.2 °F 69% 29.21 in 10.0 mi SW 12.7 mph 21.9 mph N/A   Clear
2:16 PM 30.2 °F 18.9 °F 19.4 °F 64% 29.22 in 10.0 mi SW 16.1 mph 23.0 mph N/A   Clear
2:36 PM 30.2 °F 21.3 °F 19.4 °F 64% 29.23 in 10.0 mi SSW 10.4 mph 25.3 mph N/A   Clear
2:56 PM 28.4 °F 15.1 °F 19.4 °F 69% 29.23 in 10.0 mi SSW 20.7 mph 29.9 mph N/A   Partly Cloudy
3:16 PM 28.4 °F 16.6 °F 19.4 °F 69% 29.24 in 10.0 mi SW 16.1 mph 29.9 mph N/A   Partly Cloudy
3:36 PM 28.4 °F 20.4 °F 19.4 °F 69% 29.25 in 10.0 mi WSW 8.1 mph 26.5 mph N/A   Clear
3:56 PM 28.4 °F 18.0 °F 19.4 °F 69% 29.26 in 10.0 mi SSW 12.7 mph 24.2 mph N/A   Mostly Cloudy
4:16 PM 30.2 °F 20.8 °F 21.2 °F 69% 29.26 in 10.0 mi SSW 11.5 mph 19.6 mph N/A   Overcast
4:36 PM 30.2 °F 20.2 °F 21.2 °F 69% 29.26 in 10.0 mi SW 12.7 mph 23.0 mph N/A   Overcast
4:56 PM 30.2 °F 19.8 °F 21.2 °F 69% 29.27 in 10.0 mi SW 13.8 mph 20.7 mph N/A   Overcast
5:16 PM 28.4 °F 19.1 °F 21.2 °F 74% 29.27 in 10.0 mi SW 10.4 mph 16.1 mph N/A   Overcast
5:36 PM 28.4 °F 18.0 °F 21.2 °F 74% 29.28 in 10.0 mi South 12.7 mph - N/A   Overcast
5:56 PM 28.4 °F 18.0 °F 21.2 °F 74% 29.29 in 10.0 mi SSW 12.7 mph - N/A   Mostly Cloudy
6:16 PM 30.2 °F 20.8 °F 19.4 °F 64% 29.29 in 10.0 mi SW 11.5 mph - N/A   Scattered Clouds
6:36 PM 30.2 °F 21.3 °F 19.4 °F 64% 29.30 in 10.0 mi South 10.4 mph 16.1 mph N/A   Mostly Cloudy
6:56 PM 30.2 °F 19.8 °F 19.4 °F 64% 29.31 in 10.0 mi SSW 13.8 mph 24.2 mph N/A   Overcast
7:16 PM 30.2 °F 18.9 °F 17.6 °F 60% 29.31 in 10.0 mi SW 16.1 mph 21.9 mph N/A   Overcast
7:36 PM 28.4 °F 18.0 °F 19.4 °F 69% 29.32 in 10.0 mi SW 12.7 mph 18.4 mph N/A   Overcast
8:16 PM 28.4 °F 18.5 °F 17.6 °F 64% 29.33 in 10.0 mi SSW 11.5 mph - N/A   Overcast
8:36 PM 28.4 °F 18.0 °F 19.4 °F 69% 29.33 in 10.0 mi SW 12.7 mph 18.4 mph N/A   Overcast
8:56 PM 28.4 °F 20.4 °F 17.6 °F 64% 29.33 in 10.0 mi SSW 8.1 mph - N/A   Overcast
9:16 PM 28.4 °F 18.5 °F 19.4 °F 69% 29.34 in 10.0 mi SW 11.5 mph 17.3 mph N/A   Overcast
9:36 PM 28.4 °F 19.1 °F 19.4 °F 69% 29.34 in 10.0 mi SSW 10.4 mph - N/A   Overcast
9:56 PM 28.4 °F 19.1 °F 19.4 °F 69% 29.35 in 10.0 mi SSW 10.4 mph - N/A   Overcast
10:16 PM 28.4 °F 20.4 °F 19.4 °F 69% 29.35 in 10.0 mi SW 8.1 mph - N/A   Overcast
10:36 PM 28.4 °F 18.0 °F 19.4 °F 69% 29.35 in 10.0 mi SSW 12.7 mph 16.1 mph N/A   Overcast
10:56 PM 28.4 °F 20.4 °F 17.6 °F 64% 29.36 in 10.0 mi SW 8.1 mph - N/A   Overcast
11:16 PM 28.4 °F 20.4 °F 17.6 °F 64% 29.37 in 10.0 mi SW 8.1 mph - N/A   Overcast
11:36 PM 28.4 °F 21.2 °F 17.6 °F 64% 29.37 in 10.0 mi SW 6.9 mph - N/A   Overcast
11:56 PM 28.4 °F 19.1 °F 17.6 °F 64% 29.37 in 10.0 mi South 10.4 mph - N/A   Overcast